Location: Gajan
(43.0218°N, 1.1244°E)
Time: 03:14:29
(UTC+00:00)

Cosmos 1140 Rocket - Pass Details

Date: 22 April 2021
Orbit: 744 x 767 km, 74.1° (Epoch: 15 May)

Event Time Altitude Azimuth Distance (km) Brightness Sun altitude
Rises 20:11:17 0° 193° (SSW) 3,173 6.5 -14.8°
Reaches altitude 10° 20:13:38 10° 191° (SSW) 2,252 5.7 -15.1°
Maximum altitude 20:18:43 74° 108° (ESE) 779 3.3 -15.9°
Drops below altitude 10° 20:23:50 10° 24° (NNE) 2,268 6.1 -16.7°
Sets 20:26:12 0° 22° (NNE) 3,197 6.9 -17.0°
